Regional Weather Roundup
Issued by NWS

Home | Current Version | Previous Version | Graphics & Text | Print | Product List | Glossary On
Versions: 1 2 3 4 5 6 7 8 9 10 11 12 13 14 15 16 17 18 19 20 21 22 23 24 25 26 27
000
ASUS45 KBOU 250107
RWRCO

WEATHER ROUNDUP FOR COLORADO
NATIONAL WEATHER SERVICE DENVER/BOULDER CO
700 PM MDT FRI MAR 24 2017

NOTE: "FAIR" INDICATES FEW OR NO CLOUDS BELOW 12000 FEET WITH NO
SIGNIFICANT WEATHER AND/OR OBSTRUCTIONS TO VISIBILITY.

COZ001>005-013-030-031-250200-
...NORTHWEST COLORADO...

CITY           SKY/WX    TMP DP  RH WIND       PRES   REMARKS
CRAIG          FAIR      52  22  30 W7        30.11S
HAYDEN         FAIR      52  19  28 NW5       30.12S
MEEKER         FAIR      54  22  28 W7        30.13R
MOUNT WERNER   NOT AVBL
STEAMBOAT SPGS FAIR      49  22  34 CALM      30.13S
WALDEN         NOT AVBL
$$

COZ006>008-011-250200-
...WEST CENTRAL VALLEYS...

CITY           SKY/WX    TMP DP  RH WIND       PRES   REMARKS
GRAND JUNCTION FAIR      60  27  28 S5        30.10R
MONTROSE       FAIR      55  27  34 SE8       30.15R
EAGLE          CLEAR     54  25  32 W10       30.14R
RIFLE          FAIR      58  25  28 SW7       30.11R
DELTA          FAIR      61  25  25 W8        30.12R
NUCLA          FAIR      57  27  30 W8        30.17R
$$

COZ017>023-064>068-250200-
...SOUTHWEST COLORADO...

CITY           SKY/WX    TMP DP  RH WIND       PRES   REMARKS
DURANGO        FAIR      54  24  31 SW13      30.08R
CORTEZ         FAIR      58  25  28 N7        30.14R
PAGOSA SPRINGS FAIR      53  32  45 SE3       30.14R
TELLURIDE      NOT AVBL
WOLF CREEK PAS FAIR      32  12  43 W3        30.33R
$$

COZ009-010-012-014-032>034-037-058>063-250200-
...CENTRAL COLORADO...

CITY           SKY/WX    TMP DP  RH WIND       PRES   REMARKS
ASPEN          FAIR      47  25  42 CALM      30.15S
BUENA VISTA    FAIR      48  16  27 NW12      30.14R
COPPER MTN     MOCLDY    30  19  64 W8        30.26S WCI  23
BERTHOUD PASS  CLOUDY    19   9  63 NW16G23   30.25S WCI   5
COTTONWOOD PAS FAIR      41  18  38 NW6       30.20R
GUNNISON       FAIR      46  27  47 SW10      30.17R
KREMMLING      FAIR      54  21  28 N8        30.16R
LEADVILLE      FAIR      34  18  52 W9        30.21R WCI  27
MONARCH PASS   FAIR      30  21  69 W3        30.36S
SALIDA         FAIR      48  24  39 E8G18     30.21R
SUNLIGHT       FAIR      30  25  80 W3        30.29S
WILKERSON PASS FAIR      27  21  80 N9G18     30.26R WCI  17
$$

COZ069>075-250200-
...SAN LUIS VALLEY/SANGRE DE CRISTO MOUNTAINS...

CITY           SKY/WX    TMP DP  RH WIND       PRES   REMARKS
ALAMOSA        FAIR      42  30  62 SE12      30.14R
LA VETA PASS   NOT AVBL
SAGUACHE       FAIR      48  23  37 NW10G17   30.14R
$$

COZ035-036-038>040-250200-
...NORTHERN COLORADO FRONT RANGE...

CITY           SKY/WX    TMP DP  RH WIND       PRES   REMARKS
DENVER INTL AP MOCLDY    46  32  58 E6        30.14R
DMNS CITY PARK   N/A     48  29  47 E3G12     30.14R
AURORA         MOCLDY    45  32  61 CALM      30.15R
FRONT RANGE AP NOT AVBL
ERIE MUNI ARPT FAIR      51  29  42 SE5       30.13S
BOULDER MUN AP FAIR      50  28  43 SE5       30.13R
CENTENNIAL     MOCLDY    45  32  60 CALM      30.15R
BROOMFIELD     NOT AVBL
FORT COLLINS   FAIR      53  23  31 E5        30.12R
LONGMONT       MOCLDY    54  30  39 SE7       30.15R
$$

COZ041-046-047-076>085-087-088-250200-
...PIKES PEAK/PALMER DIVIDE AND SOUTHERN FOOTHILLS...

CITY           SKY/WX    TMP DP  RH WIND       PRES   REMARKS
COLO. SPRINGS  FAIR      42  31  64 N9        30.17S
A. F. ACADEMY  CLOUDY    38  32  77 N9        30.16S
SCHRIEVER AFB  FAIR      40  31  71 NW10      30.17R
ELLICOTT         N/A    N/A N/A N/A N10       30.15
FALCON         FAIR      37  31  77 NW8       30.18S
FORT CARSON    NOT AVBL
LIMON          FAIR      38  34  85 N8        30.12S
MONUMENT HILL  FAIR      32  30  93 W6        30.18S WCI  26
TRINIDAD       FAIR      41  32  70 NW15      30.17R
$$

COZ042>045-048>051-090-091-250200-
...NORTHEAST COLORADO...

CITY           SKY/WX    TMP DP  RH WIND       PRES   REMARKS
GREELEY ARPT   FAIR      51  27  39 E10       30.12R
AKRON          FAIR      43  37  79 SE7       30.12S
BURLINGTON     MIX PCPN  37  36  96 N25G37    30.09R
WRAY           NOT AVBL
STERLING       FAIR      50  32  50 E5        30.10S
HOLYOKE        FAIR      45  36  70 NE6       30.12S
FORT MORGAN    FAIR      48  29  48 NE7       30.12S
$$

COZ086-089-092>099-250200-
...SOUTHEAST COLORADO...

CITY           SKY/WX    TMP DP  RH WIND       PRES   REMARKS
PUEBLO         FAIR      49  33  54 NE18      30.13R
LA JUNTA       FAIR      44  37  76 N10       30.12F
LAMAR          CLOUDY    43  34  70 N24G33    30.08R
SPRINGFIELD      N/A     40  34  79 N31G43    30.05R
$$




USA.gov is the U.S. government's official web portal to all federal, state and local government web resources and services.